This is the latest recevied weather packets stored in our database for station/object WA4TPR. If no packets are shown the sender has not sent any weather packets the latest 1 day(s).
| Time | Temp. | Humidity | Pressure | Rain* | Wind** | Luminosity | Snow |
|---|---|---|---|---|---|---|---|
| 1778025546 | 25.56° C | 72% | 1018.5 hPa | 0 mm | 4.47 m/s, 133° | 3 W/m² | - |
| 1778025244 | 26.11° C | 71% | 1018.4 hPa | 0 mm | 1.79 m/s, 136° | 6 W/m² | - |
| 1778024940 | 26.11° C | 70% | 1018.4 hPa | 0 mm | 1.79 m/s, 112° | 10 W/m² | - |
| 1778024638 | 26.11° C | 70% | 1018.5 hPa | 0 mm | 3.13 m/s, 100° | 16 W/m² | - |
| 1778024334 | 26.67° C | 70% | 1018.5 hPa | 0 mm | 1.34 m/s, 80° | 27 W/m² | - |
| 1778024033 | 26.67° C | 69% | 1018.3 hPa | 0 mm | 1.34 m/s, 101° | 43 W/m² | - |
| 1778023730 | 26.67° C | 69% | 1018.7 hPa | 0 mm | 3.13 m/s, 90° | 51 W/m² | - |
| 1778023428 | 26.67° C | 68% | 1018.5 hPa | 0 mm | 3.13 m/s, 71° | 53 W/m² | - |
| 1778023124 | 26.67° C | 68% | 1018.6 hPa | 0 mm | 2.68 m/s, 120° | 59 W/m² | - |
| 1778022821 | 27.22° C | 67% | 1018.5 hPa | 0 mm | 3.58 m/s, 85° | 66 W/m² | - |
| 1778022519 | 27.22° C | 67% | 1018.4 hPa | 0 mm | 1.34 m/s, 58° | 72 W/m² | - |
| 1778022217 | 27.22° C | 66% | 1018.4 hPa | 0 mm | 2.24 m/s, 207° | 83 W/m² | - |
| 1778021913 | 27.78° C | 65% | 1018.5 hPa | 0 mm | 1.34 m/s, 71° | 106 W/m² | - |
| 1778021610 | 27.78° C | 65% | 1018.4 hPa | 0 mm | 0.45 m/s, 113° | 123 W/m² | - |
| 1778021305 | 27.78° C | 65% | 1018.2 hPa | 0 mm | 2.24 m/s, 131° | 131 W/m² | - |
| 1778021004 | 27.78° C | 66% | 1018.3 hPa | 0 mm | 1.79 m/s, 67° | 142 W/m² | - |
| 1778020700 | 27.78° C | 66% | 1018.1 hPa | 0 mm | 2.24 m/s, 113° | 143 W/m² | - |
| 1778020398 | 27.78° C | 66% | 1018.3 hPa | 0 mm | 2.24 m/s, 167° | 125 W/m² | - |
| 1778020093 | 28.33° C | 64% | 1018.2 hPa | 0 mm | 3.13 m/s, 71° | 186 W/m² | - |
| 1778019789 | 28.33° C | 64% | 1018.2 hPa | 0 mm | 0.89 m/s, 100° | 168 W/m² | - |
| 1778019486 | 28.33° C | 65% | 1018.1 hPa | 0 mm | 1.34 m/s, 75° | 165 W/m² | - |
| 1778019183 | 28.33° C | 64% | 1018.1 hPa | 0 mm | 0.89 m/s, 63° | 154 W/m² | - |
| 1778018880 | 28.33° C | 63% | 1018.1 hPa | 0 mm | 0.89 m/s, 149° | 187 W/m² | - |
| 1778018577 | 28.33° C | 63% | 1018.1 hPa | 0 mm | 1.79 m/s, 43° | 193 W/m² | - |
| 1778018275 | 27.78° C | 64% | 1017.9 hPa | 0 mm | 1.34 m/s, 121° | 194 W/m² | - |
* Rain latest hour (hover to see other rain measurements)
** Current wind speed in m/s (hover to see current wind gust speed)